Belize City, Belize

10:58 PM CST on February 25, 2017 (GMT -0600)
Belize City

Weather History for 78583 - February, 2013

Change the Weather History Date:

Sunday, February 17, 2013

  Actual Average Record
Temperature  
Mean Temperature 70 °F -  
Max Temperature 77 °F 84 °F - ()
Min Temperature 62 °F - - ()
Cooling Degree Days 4    
Growing Degree Days 20 (Base 50)    
Moisture  
Dew Point 58 °F    
Average Humidity 62    
Maximum Humidity 86    
Minimum Humidity 43    
Precipitation  
Precipitation 0.00 in 0.09 in - ()
Sea Level Pressure  
Sea Level Pressure 30.17 in    
Wind  
Wind Speed 7 mph ()    
Max Wind Speed 12 mph    
Max Gust Speed -    
Visibility 9.1 miles    
Events      
T = Trace of Precipitation, MM = Missing Value Source: Averaged Metar Reports

Daily Weather History Graph

Daily Weather History Graph

Search for Another Location

Airport or City:

Trip Planner

Search our weather history database for the weather conditions in past years. The results will help you decide how hot, cold, wet, or windy it might be!

Date:

Astronomy

Feb. 17, 2013 Rise Set
Actual Time 6:18 AM CST 5:55 PM CST
Civil Twilight 5:56 AM CST 6:17 PM CST
Nautical Twilight 5:31 AM CST 6:43 PM CST
Astronomical Twilight 5:05 AM CST 7:08 PM CST
Moon 11:19 AM CST (2/17) No Moon Set
Length of Visible Light 12h 21m
Length of Day
11h 37m
Waxing Crescent, 49% of the Moon is Illuminated
Feb 17
Waxing Crescent
Feb 17
First Quarter
Feb 25
Full
Mar 4
Last Quarter
Mar 11
New

Hourly Weather History & Observations

Time (CST) Temp. Dew Point Humidity Pressure Visibility Wind Dir Wind Speed Gust Speed Precip Events Conditions
12:00 AM 70 °F 58 °F 58% 30.17 in 12 mi North 6.9 mph - -   Scattered Clouds
3:00 AM 66 °F 57 °F 65% 30.15 in 12 mi NNW 10.4 mph - -   Clear
5:00 AM 64.4 °F 57.2 °F 77% 30.15 in - NW 6.9 mph - N/A   Clear
6:00 AM 62 °F 57 °F 77% 30.20 in 12 mi WNW 4.6 mph - -   Scattered Clouds
6:00 AM 62.6 °F 57.2 °F 82% 30.18 in - WNW 4.6 mph - N/A   Clear
7:00 AM 62.6 °F 57.2 °F 82% 30.21 in 6.2 mi NW 5.8 mph - N/A   Partly Cloudy
8:00 AM 66.2 °F 55.4 °F 68% 30.21 in 6.2 mi NNW 9.2 mph - N/A   Partly Cloudy
9:00 AM 69 °F 54 °F 50% 30.25 in 12 mi North 11.5 mph - -   Scattered Clouds
9:00 AM 69.8 °F 55.4 °F 60% 30.24 in 6.2 mi North 11.5 mph - N/A   Partly Cloudy
10:00 AM 71.6 °F 53.6 °F 53% 30.24 in 6.2 mi North 9.2 mph - N/A   Partly Cloudy
11:00 AM 73.4 °F 55.4 °F 53% 30.22 in - NNW 9.2 mph - N/A   Clear
12:00 PM 75 °F 57 °F 43% 30.19 in 16 mi East 4.6 mph - -   Scattered Clouds
12:00 PM 75.2 °F 57.2 °F 53% 30.19 in 6.2 mi East 4.6 mph - N/A   Partly Cloudy
1:00 PM 77.0 °F 59.0 °F 54% 30.16 in 6.2 mi ENE 9.2 mph - N/A   Scattered Clouds
2:00 PM 77.0 °F 59.0 °F 54% 30.14 in 6.2 mi ENE 10.4 mph - N/A   Scattered Clouds
3:00 PM 76 °F 60 °F 49% 30.13 in 16 mi East 10.4 mph - -   Scattered Clouds
3:00 PM 77.0 °F 60.8 °F 57% 30.13 in 6.2 mi NE 10.4 mph - N/A   Partly Cloudy
4:00 PM 77.0 °F 60.8 °F 57% 30.12 in 6.2 mi ENE 9.2 mph - N/A   Partly Cloudy
5:00 PM 77.0 °F 62.6 °F 61% 30.13 in 6.2 mi NE 6.9 mph - N/A   Partly Cloudy
6:00 PM 74 °F 63 °F 59% 30.14 in 12 mi NE 4.6 mph - -   Partly Cloudy
6:00 PM 75.2 °F 62.6 °F 65% 30.13 in 6.2 mi NE 4.6 mph - N/A   Partly Cloudy
9:00 PM 69 °F 66 °F 86% 30.16 in 12 mi NW 3.5 mph - -   Mostly Cloudy